www.pogodaiklimat.ru

АРХИВ ПОГОДЫ в Ростове-на-Дону

Время (UTC), дата Ветер
(напр.,м/с)
 
Видим.   Явления Облачность Т
(С)
Тd
(С)
f
(%)
Тe
(С)
Тes
(С)
Комфортность P
(гПа)
Po
(гПа)
Тmin
(С)
Tmax
(С)
R
(мм)
S
(см)
18 21.09 З 4
{12}
7000 м дымка {ливн. осадки} 10/5
[Sc Ac und]
+11.8 +7.7 76 +10 +10 прохладно 1009.8 1000.9
21 21.09 З 1 6000 м дымка 4/0
[Ac trans]
+10.7 +7.4 80 +10 +10 прохладно 1011.1 1002.1
00 22.09 ЮЗ 2 7000 м дымка 9/5
[Sc Ac trans]
+10.5 +8.8 89 +9 +9 по сезону 1011.6 1002.6
03 22.09 Ю 2 4900 м дымка 9/5 800 м
[Cb calv Ac trans]
+10.9 +9.4 90 +10 +10 прохладно 1011.5 1002.5 +9.2
06 22.09 ЮЗ 5 4000 м дымка 9/3
[Sc Ac trans]
+13.3 +9.3 77 +11 +12 прохладно 1012.9 1004.0
09 22.09 З 5-10
{11}
10 км 6/4
[Cu med, cong Ac trans]
+16.2 +4.5 46 +15 +18 по сезону 1014.0 1005.2
12 22.09 З 7-11
{12}
10 км 4/4
[Cu med, cong Ac trans]
+17.2 +4.1 42 +16 +17 прохладно 1014.7 1005.9
15 22.09 З 4
{11}
10 км 5/0
[Ac trans]
+15.0 +4.0 48 +14 +14 прохладно 1016.1 1007.2 +18.0
18 22.09 З 1
{11}
8000 м ясно +10.9 +5.9 71 +11 +11 прохладно 1017.1 1008.1
21 22.09 штиль 0 8000 м ясно +8.9 +5.1 77 +8 +8 прохладно 1017.3 1008.2
00 23.09 штиль 0 8000 м дымка ясно +7.1 +4.8 85 +6 +6 холодно 1017.6 1008.4
03 23.09 В 1 6000 м местами туман поземный 4/0
[Ac trans Ci fib]
+7.1 +5.6 90 +6 +6 холодно 1017.6 1008.4 +6.1
06 23.09 В 2 5000 м дымка 8/0
[Ac trans Ci]
+10.7 +8.3 85 +9 +12 прохладно 1017.4 1008.4
09 23.09 В 3 10 км 9/0
[Ac trans Ci]
+14.2 +6.6 60 +13 +18 прохладно 1017.2 1008.3
12 23.09 С 2 10 км 9/1
[Sc Ac trans Ci]
+15.1 +6.3 56 +15 +18 холодно 1017.1 1008.2
15 23.09 С 2 10 км слабый ливневой дождь 10/5
[Cb calv Ac und]
+13.8 +5.6 58 +13 +13 прохладно 1018.1 1009.2 +15.2
18 23.09 СВ 1 4000 м слабый ливневой дождь 10/5 1260 м
[Cb calv Ac und]
+10.5 +7.8 83 +10 +10 прохладно 1019.9 1010.8
21 23.09 СЗ 2 7000 м слабый ливневой дождь 10/5 1440 м
[Cb calv Ac und]
+10.1 +8.5 90 +9 +9 прохладно 1020.2 1011.1
00 24.09 СЗ 4 8000 м слабый ливневой дождь 10/5
[Cb calv Ac und]
+10.1 +8.3 89 +7 +7 прохладно 1019.6 1010.5
03 24.09 СЗ 3 8000 м слабый ливневой дождь 10/5
[Cb calv Ac und]
+10.1 +8.2 88 +8 +8 прохладно 1020.0 1010.9 +9.8 5
06 24.09 СЗ 3 4700 м слабый ливневой дождь 10/4
[Cb calv Ac und]
+11.5 +10.1 91 +10 +10 прохладно 1020.4 1011.4
09 24.09 СЗ 2 10 км {ливн. осадки} 9/5
[Cb calv Ac trans]
+14.8 +8.8 67 +15 +17 по сезону 1019.9 1011.0
12 24.09 З 1
{10}
10 км в посл. час гроза {ливн. осадки} 9/5
[Cb calv Ac trans]
+13.7 +7.9 68 +14 +16 холодно 1019.5 1010.5
15 24.09 СЗ 1 8000 м дымка {гроза} 8/1
[Cb calv Ac trans Ci fib]
+12.9 +9.5 80 +13 +13 прохладно 1019.4 1010.4 +16.1 7
18 24.09 С 3 8000 м {гроза} 3/0
[Ac trans]
+10.3 +6.1 75 +8 +8 холодно 1019.9 1010.8
21 24.09 СЗ 3 8000 м 4/0
[Ac trans Ci fib]
+8.8 +5.4 79 +6 +6 холодно 1018.8 1009.7
00 25.09 З 2 8000 м ясно +7.7 +5.2 84 +6 +6 прохладно 1017.6 1008.5
03 25.09 З 2 8000 м 8/3 1000 м
[Cb calv Ac trans]
+8.7 +5.0 78 +7 +7 холодно 1016.7 1007.6 +7.3
06 25.09 З 3 8000 м слабый ливневой дождь 9/4
[Cb calv Ac trans]
+10.0 +6.1 77 +8 +9 холодно 1016.3 1007.3
09 25.09 З 5 10 км слабый ливневой дождь 10/5 480 м
[Cb calv Ac und]
+10.5 +8.0 84 +8 +8 очень
холодно
1014.7 1005.7
12 25.09 З 6-10
{11}
10 км слабый ливневой дождь 10/5
[Cb calv Ac und]
+11.1 +9.0 87 +8 +8 очень
холодно
1012.6 1003.6
15 25.09 З 4
{12}
5000 м слабый ливневой дождь 10/5 1000 м
[Cb calv Ac und]
+10.3 +8.3 87 +8 +8 очень
холодно
1012.3 1003.3 +11.3 8
18 25.09 З 4
{12}
8000 м слабый ливневой дождь 10/5 700 м
[Cb calv Ac und]
+8.8 +7.0 88 +6 +6 очень
холодно
1012.3 1003.3
21 25.09 З 5 8000 м {ливн. осадки} 10/5
[Cb calv Ac und]
+9.0 +6.6 85 +6 +6 холодно 1011.2 1002.2
00 26.09 З 5
{11}
6000 м слабый ливневой дождь 10/5
[Cb calv Ac und]
+9.0 +7.3 89 +5 +5 холодно 1010.7 1001.7
03 26.09 З 5 5000 м слабый ливневой дождь 10/5 300 м
[Cb calv Ac und]
+8.9 +7.6 92 +5 +5 холодно 1010.7 1001.7 +8.7 8
06 26.09 З 4 8000 м слабый ливневой дождь 10/5 210 м
[Cb calv Ac und]
+9.3 +8.1 92 +6 +7 холодно 1011.6 1002.6
09 26.09 СЗ 2 3400 м слабый ливневой дождь 10/5 540 м
[Cb calv Ac und]
+10.2 +8.7 90 +9 +10 очень
холодно
1012.2 1003.2
12 26.09 СЗ 2 10 км {ливн. осадки} 10/5 660 м
[Cb calv Ac und]
+10.4 +7.9 84 +9 +10 очень
холодно
1013.6 1004.6
15 26.09 З 2 10 км 8/4
[Cb calv Ac trans Ci fib]
+10.3 +7.2 81 +9 +9 очень
холодно
1015.2 1006.2 +10.9 6
18 26.09 СЗ 3 8000 м 8/3
[Sc Ac trans]
+10.0 +7.3 83 +8 +8 холодно 1016.5 1007.5
21 26.09 СЗ 2 8000 м 5/3
[Sc Ac trans]
+9.8 +6.8 82 +8 +8 прохладно 1017.2 1008.1
00 27.09 СЗ 2 8000 м 5/0
[Ac trans]
+8.6 +6.2 85 +7 +7 прохладно 1017.1 1008.0
03 27.09 СЗ 4 8000 м 8/0
[Ac trans]
+8.1 +6.3 88 +5 +5 холодно 1017.3 1008.2 +8.0
06 27.09 СЗ 4 10 км 5/0
[Ac trans Ci fib]
+11.1 +7.5 78 +9 +10 прохладно 1018.0 1009.0
09 27.09 З 4 10 км 8/5 1080 м
[Cb calv Ac trans]
+13.2 +8.6 74 +12 +13 прохладно 1018.0 1009.0
12 27.09 З 4 10 км 9/5
[Cb calv Ac trans]
+12.9 +9.0 77 +11 +12 очень
холодно
1018.2 1009.2
15 27.09 З 3 4500 м дымка {ливн. осадки} 9/4
[Cb calv Ac trans]
+12.4 +8.9 79 +11 +11 холодно 1018.5 1009.5 +13.8
18 27.09 З 2 5000 м слабый ливневой дождь 9/4
[Cb calv Ac trans]
+11.1 +8.8 86 +10 +10 прохладно 1019.1 1010.1
21 27.09 З 2 5000 м дымка {ливн. осадки} 9/4
[Sc Ac trans]
+10.7 +8.9 89 +9 +9 прохладно 1018.7 1009.7
00 28.09 СЗ 2 8000 м дымка {ливн. осадки} 9/4 1000 м
[Cb calv Ac trans]
+10.8 +8.2 84 +9 +9 по сезону 1018.2 1009.2
03 28.09 СЗ 2 7000 м слабый ливневой дождь 10/5 700 м
[Cb calv Ac und]
+10.0 +8.0 87 +8 +8 прохладно 1018.6 1009.5 +10.0
06 28.09 СЗ 3 10 км {ливн. осадки} 9/5 800 м
[Cb calv Ac trans]
+10.7 +7.7 82 +9 +9 прохладно 1019.1 1010.1
09 28.09 СЗ 4 10 км 10/5 540 м
[Cb calv Ac und]
+11.0 +6.7 75 +9 +10 холодно 1019.8 1010.8
12 28.09 СЗ 2 10 км 10/5 750 м
[Cb calv Ac und]
+11.7 +6.7 71 +11 +11 очень
холодно
1019.9 1010.9
15 28.09 С 2 10 км 6/3
[Cb calv Ac trans]
+10.4 +5.8 73 +9 +9 холодно 1021.0 1011.9 +11.9 0.0

 

Местоположение метеостанции Ростов-на-Дону (Ростовская область, Россия): широта 47.27 долгота 39.82 высота над уровнем моря 75 м.

В архиве по умолчанию представлена погода в Ростове-на-Дону за последнюю неделю. Архивные данные за месяц целиком и за предыдущие месяцы, начиная с января 2011 года, Вы можете получить, выбрав интересующий диапазон дат из раскрывающегося списка и нажав кнопку "Ввод!".

Внимание! Время в таблицах - всемирное. Для получения местного времени необходимо прибавить поправку, которая в Ростове-на-Дону равна 3 ч.

Ветер - указаны скорость ветра в м/с - средняя за 10 мин, порывы в срок и между сроками (в фигурных скобках) и направление, откуда дует ветер: С - северный, СВ - северо-восточный, В - восточный, ЮВ - юго-восточный, Ю - южный, ЮЗ - юго-западный, З - западный, СЗ - северо-западный.
Видимость - горизонтальная дальность видимости в метрах или километрах. При видимости от 1 до 10 км при отсутствии осадков обычно наблюдается дымка, при ухудшении видимости до 1 км и менее - туман. В сухую погоду видимость может ухудшаться дымом, пылью или мглою.
Явления - указаны атмосферные явления, наблюдавшиеся в срок или в последний час перед сроком; фигурными скобками обозначены явления, наблюдавшиеся между сроками (за 1-3 часа до срока); квадратными скобками обозначены град или гололедные отложения с указанием их диаметра в мм.
Облачность - указаны через наклонную черту общая и нижняя облачность в баллах и высота нижней границы облаков в метрах; квадратными скобками обозначены формы облаков: Ci - перистые, Cs - перисто-слоистые, Cc - перисто-кучевые, Ac - высококучевые, As - высокослоистые, Sc - слоисто-кучевые, Ns - слоисто-дождевые, Cu - кучевые, Cb - кучево-дождевые. Подробнее классификацию облаков см. в Атласе облаков (PDF).
T - Температура воздуха - температура, измеренная на высоте 2 м над землей.
Td - Температура точки росы - температура, при понижении до которой содержащийся в воздухе водяной пар достигнет насыщения.
f - Относительная влажность воздуха - влажноcть воздуха, измеренная на высоте 2 м над землей.
Te - Эффективная температура - температура, которую ощущает одетый по сезону человек в тени. Характеристика душности погоды. При расчете учитывается влияние влажности воздуха и скорости ветра на теплоощущения человека.
Tes - Эффективная температура на солнце - температура, которую ощущает человек, с поправкой на солнечный нагрев. Характеристика знойности погоды. Зависит от высоты солнца над горизонтом, облачности и скорости ветра. Ночью, в пасмурную погоду, а также при ветре 12 м/с и более поправка равна нулю.
P - Атмосферное давление - приведенное к уровню моря атмосферное давление.
Po - Атмосферное давление - измеренное на уровне метеостанции атмосферное давление.
Tmin - Минимальная температура - минимум температуры воздуха на высоте 2 м над землей.
Tmax - Максимальная температура - максимум температуры воздуха на высоте 2 м над землей.
R - Количество осадков - Количество выпавших осадков, мм. При наведении курсора мыши на число - период времени, за который выпало указанное количество осадков.
S - Снежный покров - Высота снежного покрова, см. При наведении курсора мыши на число - состояние снежного покрова и степень покрытия местности в баллах.